Wind_Speed
44 43 41 39 38 38 38 39 40 40 41 40 38 37 38 39 39 39 39 39 39 38 38 37 37 37 37 37 37 38 38 40 41 42 44 46 47 49 49 49 49 48 49 50 51 53 54 55 56 57 59 61 61 60 61 65 68 69 69 70 70 70 70 71 73 74 75 75 74 74 74 74 73 71 70 70 70 70 71 72 73 75 76 77 79
42 40 37 35 35 35 35 36 37 38 39 39 38 36 37 39 40 40 40 40 40 39 39 38 38 38 38 38 39 40 41 42 43 45 46 47 48 49 49 49 50 50 51 52 53 54 55 55 57 59 61 63 61 59 60 64 68 70 71 71 72 72 73 74 75 76 76 76 75 74 73 73 71 70 70 70 70 70 71 72 74 75 76 78 80
41 38 35 34 33 33 33 33 33 35 37 38 37 36 36 38 39 40 41 41 41 40 40 39 39 39 40 40 41 42 43 44 45 46 47 48 48 49 50 50 51 52 53 54 55 56 57 57 59 62 63 63 61 60 61 64 68 71 73 73 74 74 75 76 77 77 77 76 75 73 73 72 71 71 71 70 70 70 71 73 74 75 77 79 81
39 37 34 32 31 31 31 31 32 34 36 37 37 36 36 37 39 41 42 42 42 42 41 41 41 41 41 42 43 44 45 46 46 47 47 48 49 50 51 52 53 54 56 57 57 58 59 60 61 63 63 62 61 62 63 66 70 73 75 76 76 76 77 78 78 78 77 75 75 74 74 73 72 71 71 70 70 71 72 73 74 76 78 80 82
38 36 34 32 31 30 30 31 32 33 34 35 36 36 36 37 38 41 42 43 43 43 43 42 42 42 43 44 45 46 47 48 48 48 48 49 50 52 53 54 55 57 58 59 59 59 60 61 62 63 63 62 63 64 66 68 71 74 77 77 78 78 79 80 80 79 77 76 75 75 74 73 71 71 71 70 70 71 72 73 75 77 79 81 83
36 35 34 32 30 30 30 30 31 32 33 34 36 37 37 37 39 41 43 44 44 44 44 44 44 45 45 47 48 49 49 49 49 49 49 50 52 54 55 56 58 59 60 60 60 61 62 62 62 62 62 63 65 67 68 69 71 75 78 79 79 80 81 81 81 80 78 76 75 74 74 72 71 71 71 70 70 71 72 73 75 78 80 82 84
36 35 33 32 30 30 30 31 31 31 32 34 35 37 38 39 40 41 43 44 44 45 45 45 46 47 48 50 51 51 51 51 50 50 51 53 55 56 57 58 60 61 61 61 62 63 63 62 61 61 62 65 68 69 70 70 72 76 79 80 81 82 82 81 80 79 77 75 74 74 73 72 71 70 70 70 71 72 73 74 76 78 81 83 84
37 35 34 32 31 31 31 31 31 32 33 34 35 36 38 40 41 43 44 45 45 46 46 47 48 49 51 52 53 54 53 53 52 53 54 55 57 58 59 61 62 63 63 65 66 65 64 62 62 62 64 67 69 70 71 71 74 79 81 82 83 83 82 80 79 77 75 74 74 73 72 70 70 70 70 71 71 72 74 76 77 79 81 83 85
39 37 36 34 34 34 34 33 33 34 35 35 36 37 39 40 42 44 45 46 47 47 48 49 50 51 53 54 55 55 55 54 54 55 56 58 59 60 61 62 63 65 66 68 67 65 64 63 62 63 66 67 69 71 72 73 77 80 82 82 82 81 80 79 77 76 74 74 73 72 70 69 69 70 70 71 72 73 75 78 79 81 82 84 84
40 40 39 38 38 38 38 37 37 37 38 39 39 40 41 42 43 45 46 47 48 49 50 51 52 53 55 56 57 56 55 55 56 57 58 59 60 61 62 64 66 68 68 68 67 66 66 65 64 66 68 69 71 73 73 75 78 81 81 81 81 80 78 77 76 74 73 73 72 71 70 69 69 70 70 71 72 74 77 79 80 82 83 84 84
42 42 42 42 41 41 41 41 41 41 42 43 43 43 44 45 45 46 47 48 49 50 52 53 54 56 57 57 57 57 56 56 57 58 59 60 61 63 64 67 69 69 68 68 68 69 69 68 68 69 70 71 73 73 74 76 79 80 80 80 79 78 77 75 74 73 73 72 71 70 69 68 69 70 70 71 73 76 78 80 81 83 84 85 84
44 44 44 44 44 44 44 44 45 45 46 46 46 46 47 47 48 48 49 50 51 53 54 55 55 57 57 57 57 56 56 57 58 59 60 61 63 65 67 69 69 68 68 69 69 70 71 72 72 72 73 73 73 72 74 77 78 79 79 78 77 76 75 73 73 72 71 71 71 70 68 68 68 69 70 72 74 77 79 81 82 84 84 85 84
46 46 46 46 46 46 46 47 47 48 48 48 49 49 49 49 49 49 50 51 53 54 55 56 57 58 57 57 56 57 57 59 59 60 62 63 66 68 69 70 70 70 70 71 72 73 73 73 74 75 75 74 72 73 75 77 78 79 78 77 76 74 73 72 71 70 70 71 70 68 67 67 67 69 72 74 76 78 80 81 83 84 84 84 84
49 48 48 48 48 49 49 49 49 50 50 50 51 51 51 51 50 50 51 52 53 54 56 57 57 57 56 56 57 58 59 60 61 63 64 66 68 69 70 71 71 71 71 72 72 73 73 74 76 76 75 73 72 74 77 78 78 78 77 75 74 72 72 71 69 69 70 70 68 66 65 66 68 70 73 75 76 78 80 81 82 84 84 85 85
51 51 51 51 51 51 52 52 52 52 52 52 53 53 52 52 51 51 51 52 53 54 54 55 55 55 56 57 58 59 60 62 64 65 67 68 69 71 72 71 71 71 72 72 70 70 72 74 76 76 74 72 74 76 78 79 78 77 74 73 72 72 71 69 68 69 70 68 65 64 64 66 69 71 73 74 77 79 80 81 83 84 86 86 86
53 54 53 54 54 54 55 55 55 55 55 54 53 53 52 52 51 52 52 52 53 53 53 54 54 56 57 58 60 61 61 63 65 67 69 70 71 71 70 69 70 72 72 70 69 72 74 75 76 75 73 73 76 79 80 78 76 74 72 72 72 71 69 67 68 69 67 64 63 63 65 67 69 71 73 75 77 79 81 82 85 86 87 87 87
55 56 55 56 56 57 57 58 58 57 56 55 53 52 53 53 53 53 53 54 54 55 55 56 56 58 59 60 61 62 62 63 65 68 70 71 70 69 68 68 69 70 70 69 71 73 74 75 76 74 73 75 78 80 78 75 73 72 72 72 71 69 67 67 68 65 62 62 63 64 66 68 69 71 74 77 79 81 82 84 86 87 88 88 88
57 57 57 58 59 59 60 59 59 58 58 57 56 55 55 55 55 55 56 56 57 57 58 59 59 60 61 61 61 62 63 65 67 69 70 69 68 67 67 67 68 68 69 70 71 72 75 76 75 73 75 78 79 76 73 71 71 72 72 71 69 67 67 66 64 61 60 62 64 65 66 68 70 72 75 78 80 82 83 85 86 88 88 89 89
58 59 59 60 61 62 62 61 60 59 59 59 59 58 58 58 57 57 57 57 58 58 59 60 60 60 61 61 62 63 65 67 66 66 68 68 68 69 69 67 67 68 69 69 70 73 75 76 75 75 77 77 74 71 70 71 72 72 71 69 68 66 65 62 60 60 61 63 63 65 67 68 70 73 75 77 80 82 83 85 86 88 88 89 91
60 61 62 63 63 63 62 61 60 59 59 59 59 59 60 59 59 58 58 57 58 58 59 59 60 60 60 61 62 64 66 66 65 66 68 70 71 70 68 67 68 69 67 68 71 74 76 76 76 77 76 72 69 69 70 71 71 71 70 68 66 63 61 60 60 60 61 62 63 65 67 68 70 73 75 77 79 81 83 85 87 88 88 89 91
62 63 63 63 63 62 60 59 58 57 57 58 59 60 60 60 60 60 59 59 59 59 60 61 61 61 61 62 64 65 66 67 69 70 71 71 70 69 69 70 70 68 67 69 72 74 75 77 78 76 72 69 69 71 71 71 70 70 68 66 63 61 60 60 60 60 61 62 64 65 67 68 70 73 75 76 78 81 83 85 86 87 88 90 92
63 63 62 61 60 58 57 56 55 56 57 58 59 60 61 62 62 62 62 63 63 64 65 65 66 66 66 67 67 67 67 69 70 70 69 70 71 73 73 72 71 69 70 72 72 74 76 76 74 69 67 69 71 71 71 70 69 67 65 63 62 61 60 59 59 60 61 62 64 65 67 68 70 71 73 75 78 80 83 84 86 87 89 91 93
62 61 60 59 57 55 55 57 59 61 63 65 65 66 66 67 67 68 69 69 70 70 70 70 69 68 68 68 67 67 68 69 69 69 70 73 75 74 73 72 71 71 71 71 73 75 73 69 65 65 68 71 71 70 69 67 66 65 64 64 62 61 59 59 59 61 62 62 63 65 67 68 70 71 73 76 78 81 82 84 86 88 90 92 94
61 61 59 57 56 58 61 64 68 70 71 71 71 71 72 72 72 72 73 73 73 72 71 70 68 67 67 68 67 67 68 69 70 71 72 73 73 72 72 71 70 70 71 71 71 69 64 62 64 68 70 70 68 67 66 65 65 65 64 62 60 59 58 59 60 61 62 63 64 66 68 69 71 72 75 77 79 81 82 84 86 88 91 93 94
61 61 60 60 62 66 69 72 73 74 73 73 73 72 72 72 72 71 71 71 70 69 68 67 65 64 64 65 66 67 69 70 71 71 71 71 71 69 69 69 69 71 70 67 64 61 62 65 68 68 68 66 66 67 66 66 65 64 61 59 58 58 58 59 60 61 62 64 66 68 69 70 71 73 75 78 79 81 82 84 86 89 92 93 94
64 65 67 69 72 74 75 75 75 74 74 73 73 72 71 70 69 68 67 66 65 64 63 62 61 61 62 64 66 68 70 71 72 72 71 69 68 68 69 69 69 66 63 60 60 63 66 68 67 67 67 68 69 69 67 65 63 60 58 57 57 57 58 59 61 62 63 65 66 67 68 69 71 74 76 78 79 81 83 85 88 90 93 94 94
72 73 74 75 76 76 75 75 74 74 73 72 71 70 69 68 66 65 64 62 61 59 59 59 60 61 64 66 68 70 71 72 72 70 68 67 68 69 68 65 61 59 60 62 65 67 67 67 68 69 70 71 70 69 66 62 59 57 56 56 56 57 58 59 60 62 63 64 65 66 67 69 72 74 76 77 79 81 84 86 89 91 93 94 93
77 77 77 76 76 75 74 73 72 71 70 68 66 65 65 64 63 62 61 59 58 59 60 61 63 66 68 69 70 70 70 69 68 68 68 69 68 64 60 58 59 63 65 66 66 67 68 69 70 71 71 71 69 66 62 59 56 55 55 54 55 56 57 58 60 61 63 64 65 66 68 70 72 74 76 77 79 82 85 87 90 92 93 93 92
77 76 76 75 73 73 71 70 68 67 65 64 64 64 64 62 61 59 59 59 59 60 61 64 69 72 73 72 70 68 67 67 69 69 68 64 60 58 59 63 66 67 67 67 67 68 69 69 70 71 70 68 65 62 58 56 54 53 53 53 55 56 58 59 61 62 63 64 66 68 69 71 73 74 76 78 80 83 85 88 90 91 92 92 91
76 75 74 73 72 70 69 67 65 65 65 65 65 65 63 61 59 59 60 60 61 63 67 72 75 74 71 68 67 67 68 68 67 63 59 57 59 64 67 68 68 68 68 69 69 69 69 70 70 69 68 65 62 59 57 55 54 53 54 55 56 58 59 60 61 62 63 65 67 69 70 71 73 75 77 78 80 83 86 88 90 91 91 91 88
75 74 73 71 69 67 66 65 65 65 66 66 66 64 62 61 60 61 62 63 66 70 73 73 70 67 65 66 66 65 63 61 58 57 59 64 68 70 69 69 69 69 70 70 70 70 69 69 68 66 65 62 59 57 55 54 53 54 55 56 57 59 60 60 61 63 65 67 68 69 70 72 73 75 77 79 81 83 86 88 89 90 90 89 86
72 71 69 67 65 64 64 65 65 65 65 65 64 63 62 62 63 64 66 68 69 69 67 64 62 62 62 61 59 58 57 58 61 64 68 69 70 69 70 70 71 71 70 70 69 68 67 65 64 63 61 58 56 54 53 53 54 54 55 57 58 59 60 61 62 64 66 67 68 69 70 72 74 75 77 80 82 84 86 88 89 89 88 86 82
68 67 65 64 63 63 65 66 66 66 65 65 64 64 64 65 66 68 69 68 65 61 59 59 59 58 56 56 57 61 65 67 69 69 69 69 70 70 71 71 71 70 69 67 65 64 63 62 61 59 57 55 53 53 53 53 54 55 56 57 58 59 60 62 63 64 66 67 68 69 70 72 74 76 78 80 82 84 86 87 88 88 87 83 79
67 66 64 63 64 65 66 67 67 67 67 67 67 67 68 69 68 66 64 60 57 55 55 56 57 59 61 65 68 71 71 71 69 69 69 70 70 70 70 69 68 66 65 63 62 62 61 59 58 56 54 52 52 52 53 53 54 55 57 58 58 59 61 62 63 64 66 67 68 69 71 72 74 76 78 80 82 84 86 87 88 87 85 80 75
67 65 65 65 65 67 68 68 69 70 71 72 72 71 70 68 64 61 58 57 56 57 59 63 66 69 73 74 73 72 70 69 69 69 69 69 68 67 66 65 63 63 62 61 61 59 58 57 55 53 51 51 51 52 53 53 54 56 57 58 59 60 61 62 63 64 65 66 68 69 71 73 74 76 78 80 82 84 85 86 87 85 82 77 72
70 70 71 71 71 71 71 73 74 76 77 76 74 70 67 63 60 59 59 60 60 62 65 68 71 72 73 72 71 69 68 67 67 67 66 64 63 62 62 62 62 61 60 59 58 57 55 53 51 50 50 51 51 52 52 54 55 57 58 58 59 60 61 62 63 64 64 66 67 69 71 73 74 76 77 79 81 83 85 85 85 83 79 74 69
78 79 78 78 76 75 74 74 75 76 75 72 69 66 63 61 61 61 61 62 63 64 67 68 69 68 68 67 66 65 64 65 64 63 61 61 61 61 61 61 60 59 58 57 56 54 52 50 49 50 50 50 51 52 53 54 56 57 58 59 59 60 61 62 62 63 64 66 68 69 71 73 74 76 77 78 80 82 84 84 83 81 76 71 66
84 84 83 81 79 77 76 75 74 73 72 69 67 65 63 62 63 63 63 63 63 64 64 65 64 64 64 64 63 63 62 61 60 59 60 60 61 61 60 60 59 58 57 55 54 52 50 49 49 49 49 50 50 52 54 55 56 57 58 59 60 60 61 61 62 64 65 66 68 69 71 72 74 75 76 77 79 81 82 82 81 78 73 68 64
84 83 82 80 78 77 76 75 73 71 70 68 67 65 64 64 65 65 64 62 61 61 61 62 62 62 63 62 61 60 58 58 58 59 59 60 60 60 59 58 57 56 54 53 51 50 49 49 49 49 49 50 51 53 54 56 57 58 59 59 60 61 62 62 63 65 66 67 68 69 70 72 74 75 75 77 78 80 81 81 79 75 70 65 61
79 78 76 75 74 73 72 72 70 69 68 67 66 66 66 66 65 63 61 60 60 60 61 61 60 60 59 58 57 57 57 58 58 58 59 59 59 58 57 56 55 53 52 51 50 49 49 49 49 49 50 52 53 55 56 57 58 59 59 60 61 62 62 63 65 66 67 68 68 69 70 72 73 73 74 76 77 78 79 79 77 73 67 63 59
74 72 71 70 70 70 70 70 69 68 68 67 67 67 66 64 62 60 59 59 60 60 58 57 57 56 56 56 57 57 58 58 58 58 58 58 57 56 55 54 52 51 50 49 49 49 49 49 50 50 52 54 55 56 57 58 59 59 60 60 61 62 63 65 66 67 68 68 68 69 70 71 72 72 73 74 76 77 78 78 75 70 65 61 57
67 67 67 68 68 69 70 70 69 68 66 65 64 62 60 58 56 56 56 56 56 55 55 55 55 56 57 57 57 58 58 58 58 57 57 56 55 53 52 51 51 50 50 50 50 50 50 50 51 52 54 56 57 58 59 60 61 61 61 61 62 63 65 66 67 67 68 68 68 69 70 70 71 71 72 73 74 75 76 76 73 67 62 59 56
62 63 64 65 65 64 63 62 60 58 56 54 53 53 53 52 52 52 53 53 54 55 56 57 57 57 58 57 57 56 56 55 55 55 54 53 52 52 51 51 51 51 50 50 50 51 51 51 53 54 56 57 58 59 61 62 62 63 63 63 64 65 66 67 67 68 68 68 68 69 69 70 70 70 71 72 73 74 75 74 70 65 60 57 54
55 56 56 54 53 52 51 50 49 48 48 48 49 51 52 52 53 53 54 55 55 56 56 56 56 55 55 54 54 53 53 53 53 52 52 52 51 51 51 51 51 50 50 50 51 51 52 53 55 57 58 59 60 61 62 63 64 65 65 65 66 66 67 67 68 68 68 68 68 69 69 69 69 70 70 71 72 73 74 72 68 63 59 56 53
48 48 47 47 47 48 48 48 47 48 48 50 51 51 52 52 52 52 52 52 52 52 52 52 52 52 52 52 52 52 52 52 51 51 51 51 51 51 51 51 50 50 51 51 52 53 54 56 58 59 60 61 62 63 64 65 66 67 67 67 67 67 67 68 68 68 68 68 68 68 68 69 69 69 70 70 71 72 72 70 66 61 57 54 52
41 41 42 43 45 46 46 45 46 46 47 48 48 48 48 49 49 49 49 50 50 51 51 52 52 52 52 51 51 51 51 51 51 51 51 51 50 50 50 50 50 51 52 53 54 55 57 59 60 60 61 62 63 64 65 67 68 68 68 67 67 68 68 69 69 69 68 68 68 68 68 68 69 69 70 70 70 71 71 69 64 59 56 53 51
42 43 43 43 43 43 43 43 43 44 44 44 45 46 47 47 48 49 50 51 52 52 53 54 54 53 52 52 51 50 50 51 51 50 50 50 50 50 50 51 51 53 54 55 56 58 59 61 62 62 63 64 65 66 67 68 69 69 68 68 68 69 69 69 69 69 68 68 68 68 68 69 69 69 69 70 70 70 70 68 63 58 54 52 51
44 44 44 43 43 43 43 44 44 45 45 46 47 48 49 50 51 52 53 53 54 55 55 55 55 54 53 52 51 51 51 51 50 50 50 50 50 51 51 52 53 54 55 57 59 60 61 62 62 63 64 65 66 67 68 70 70 70 69 69 69 70 70 70 70 70 69 69 69 69 69 69 70 70 69 69 69 69 69 66 62 57 53 51 50
43 43 44 44 45 45 46 47 48 49 49 50 51 52 53 54 55 55 56 56 56 56 56 56 55 54 53 52 52 51 51 50 50 50 50 50 51 51 52 53 54 56 57 59 61 61 62 63 63 64 65 66 68 69 70 71 71 71 70 70 71 71 71 71 71 71 71 70 70 70 70 70 71 70 70 69 68 68 67 65 61 56 52 50 49
44 45 46 46 47 48 49 49 50 51 52 53 54 55 56 56 57 58 58 58 58 58 57 56 55 54 53 52 51 51 50 50 50 50 50 51 52 53 54 55 56 58 59 61 62 62 63 64 65 66 68 69 70 71 72 72 72 72 72 72 72 72 72 72 72 72 72 72 71 71 71 72 72 71 70 69 67 66 66 63 59 54 51 49 48
48 48 49 49 50 50 51 52 52 53 54 55 55 56 57 57 58 59 59 59 59 59 58 57 56 54 53 53 52 51 51 51 51 51 51 52 54 55 56 58 59 60 61 62 63 64 66 67 68 69 70 70 71 72 73 73 73 73 73 74 74 74 74 74 74 74 74 73 73 73 73 73 73 72 71 69 67 65 64 61 57 53 50 48 47
Wind_Direction
292 292 291 291 289 288 288 288 289 289 289 288 287 286 285 283 280 276 274 273 273 273 273 273 274 275 276 278 279 281 283 285 286 288 289 289 289 289 289 289 289 290 291 292 293 294 295 296 298 300 302 304 306 306 305 304 305 307 308 308 308 308 309 309 309 309 308 308 307 306 305 305 305 304 303 303 304 306 307 308 309 311 313 315 317
293 293 293 292 290 289 290 289 289 288 288 287 286 285 285 284 280 277 274 273 274 274 274 275 276 277 278 280 281 283 284 286 287 287 287 287 287 287 287 287 288 289 290 291 292 293 294 296 299 301 304 306 307 306 305 304 305 306 307 307 307 308 309 309 308 308 307 307 306 305 305 305 304 303 303 304 305 306 307 309 311 313 315 317 319
292 293 293 293 293 292 291 289 288 288 287 286 284 283 284 283 281 279 276 274 274 274 274 275 276 278 279 281 283 284 285 285 286 286 286 286 286 286 286 287 288 289 289 290 291 292 295 298 301 302 304 307 308 307 307 306 305 305 305 306 307 307 307 307 307 307 306 305 305 305 304 304 303 303 303 304 305 307 309 311 312 314 316 318 319
292 293 294 295 295 294 291 290 289 288 287 286 284 282 282 282 281 279 277 275 275 274 275 276 277 278 280 282 283 284 285 285 285 285 285 285 285 285 286 287 288 288 289 290 292 295 298 300 302 303 304 306 308 309 309 307 306 305 304 305 305 306 306 307 306 305 305 305 304 304 304 304 303 303 303 305 307 308 310 312 313 316 318 319 319
293 294 296 296 296 294 292 291 289 288 288 287 284 282 280 280 280 278 277 276 276 276 276 277 278 280 281 283 284 284 285 285 285 285 285 285 285 286 287 288 288 288 290 292 295 297 299 300 302 304 305 306 307 309 309 307 305 303 303 303 304 304 305 305 304 304 304 303 303 303 303 303 302 303 304 306 308 309 311 313 315 317 318 319 320
293 295 296 297 296 294 293 291 290 290 289 288 286 284 282 280 279 278 278 277 278 278 279 279 280 282 283 284 285 285 285 286 286 285 285 286 286 287 287 288 288 290 292 294 296 297 298 301 304 305 306 305 305 305 305 304 302 301 301 302 302 303 303 302 302 302 302 302 302 302 303 302 302 303 305 307 309 310 312 314 317 318 319 320 321
295 296 297 297 296 295 294 292 291 291 290 288 287 286 284 282 279 278 278 278 279 280 280 281 283 284 285 286 286 285 285 285 285 286 286 286 287 287 288 289 290 291 293 295 296 297 298 302 304 305 306 305 303 301 300 300 299 299 300 301 301 301 300 300 300 300 300 301 302 302 302 302 303 305 307 308 310 311 313 315 318 319 320 321 322
294 296 297 298 296 295 294 293 291 290 288 286 286 285 284 282 281 280 279 279 279 280 281 282 284 285 286 286 286 285 285 285 285 286 286 287 287 288 288 289 291 293 294 296 296 297 299 301 303 304 304 303 301 299 298 297 296 297 299 299 299 299 299 299 299 300 300 301 301 301 302 303 304 306 308 310 311 313 315 317 318 319 321 323 323
294 296 297 297 296 296 295 294 292 290 288 286 285 284 283 281 281 280 280 280 280 280 281 282 284 286 286 286 285 285 285 286 286 287 287 288 288 288 290 291 293 294 295 296 296 296 298 300 301 302 302 301 299 297 296 295 294 295 296 297 297 298 298 298 298 299 300 300 301 301 302 304 306 308 309 311 312 314 316 318 319 321 322 323 324
296 296 297 297 296 297 297 296 295 293 290 288 287 286 285 282 281 280 279 279 279 280 280 282 284 285 285 285 285 285 285 286 287 287 288 288 289 290 291 292 293 295 296 296 296 296 297 299 299 299 299 298 296 295 294 293 292 293 295 296 297 297 297 297 298 299 300 300 300 301 304 306 307 308 310 312 314 316 317 318 320 322 323 323 324
296 296 296 296 296 296 296 295 295 294 293 291 289 288 287 285 283 281 280 280 279 279 279 281 282 283 284 284 285 285 285 286 287 287 287 288 289 290 291 292 294 295 295 294 294 294 296 297 296 295 295 294 293 292 292 291 292 294 295 296 296 296 296 297 299 299 299 300 301 303 305 307 308 309 311 314 316 317 318 320 321 322 323 323 324
295 295 295 295 295 294 293 293 293 293 293 292 290 289 288 287 285 283 282 281 280 280 280 281 282 283 284 285 284 284 285 285 286 286 287 288 288 289 290 292 293 293 292 291 291 291 293 293 293 292 290 290 290 291 291 291 293 294 295 295 294 295 297 299 299 298 299 300 302 305 307 308 309 311 313 315 317 318 319 321 322 322 323 323 324
294 294 294 294 294 292 291 291 291 290 290 290 290 290 289 288 287 285 283 282 282 282 282 282 282 283 284 285 285 285 285 285 285 286 286 287 288 288 289 290 291 290 289 289 289 290 291 291 290 289 288 289 290 291 291 292 293 294 294 293 293 295 298 298 298 298 300 302 304 306 308 309 312 314 315 316 317 319 320 321 322 322 322 323 323
293 293 293 293 293 292 291 290 290 289 289 289 289 289 289 289 288 286 285 284 283 283 282 282 283 283 284 284 285 285 285 285 285 285 285 286 286 286 287 288 289 289 287 287 289 291 291 290 289 288 288 290 290 289 290 292 292 292 291 292 294 297 298 297 297 299 301 303 306 308 310 312 314 315 316 317 318 319 321 321 321 322 322 323 323
290 291 292 292 292 292 291 291 290 289 289 289 289 289 288 288 288 287 285 284 283 283 282 282 283 283 283 283 284 285 286 286 285 285 284 284 284 285 287 288 288 287 286 288 291 292 290 288 287 287 288 289 288 288 289 290 290 289 290 293 296 297 297 297 298 301 302 304 307 310 312 314 315 316 317 318 319 320 320 321 321 321 322 323 323
287 289 290 290 290 291 291 291 291 291 290 290 289 289 288 287 287 285 284 283 283 282 282 282 282 282 283 284 285 286 287 286 285 284 283 283 284 285 286 287 287 287 288 290 292 291 288 286 286 286 287 287 286 287 288 288 288 289 293 295 296 296 297 298 300 302 304 307 310 313 314 314 315 317 318 318 318 319 320 321 321 321 322 322 323
285 286 286 287 288 289 290 291 292 292 291 291 290 289 288 287 285 284 283 282 282 282 282 282 282 283 285 286 287 287 287 285 284 283 283 283 285 286 287 288 289 288 289 291 291 289 285 284 284 286 286 286 286 286 286 287 289 292 294 295 295 297 298 299 300 303 307 310 312 313 314 315 316 317 318 318 319 320 320 321 321 321 322 322 322
282 283 284 285 287 288 290 290 291 291 291 291 290 289 288 287 285 284 283 283 283 283 283 284 285 285 286 287 286 286 286 285 283 283 284 285 286 287 288 288 288 289 291 291 289 285 283 283 283 285 285 285 284 284 286 288 291 293 294 294 296 298 298 299 303 307 310 311 312 313 315 316 317 317 318 318 319 320 320 321 321 321 322 322 322
280 281 282 284 285 287 288 289 289 290 290 290 290 289 287 286 285 284 283 283 284 284 285 286 286 287 287 287 287 286 285 283 283 283 285 286 287 288 288 288 289 291 292 289 285 282 281 281 283 283 283 282 283 285 288 291 292 293 294 296 297 297 299 302 307 309 310 311 312 314 316 317 317 317 318 319 319 320 320 320 321 321 321 321 321
279 280 281 283 284 285 286 287 288 288 289 289 288 287 287 286 285 285 284 285 285 285 286 287 287 288 288 288 287 286 285 285 285 285 285 287 287 288 289 289 290 291 290 285 282 280 280 281 282 281 280 281 284 288 290 291 293 294 295 296 297 299 303 306 308 308 310 312 314 315 317 317 317 318 318 318 319 319 320 320 320 320 320 321 321
280 280 281 282 283 283 284 285 286 287 287 287 286 286 285 285 285 285 285 285 286 286 287 287 287 288 288 288 287 287 287 288 288 287 286 286 287 287 288 289 289 287 283 279 278 279 280 280 279 279 280 283 287 289 291 292 294 295 296 298 300 303 305 306 307 308 311 313 315 316 317 317 317 317 317 318 318 319 319 319 319 319 320 321 321
280 281 281 282 282 283 284 285 286 287 287 287 286 285 285 285 285 285 285 286 287 287 287 287 288 289 289 288 287 287 287 287 287 286 286 286 286 287 288 289 287 282 278 277 279 280 279 278 278 280 283 286 288 290 292 293 295 297 299 301 303 304 304 305 307 309 312 314 315 316 316 317 317 316 316 317 317 318 318 318 318 319 320 320 320
280 281 281 281 282 283 285 287 288 288 288 287 286 286 286 285 286 286 286 286 287 287 288 288 288 288 288 287 286 286 286 286 286 285 285 285 286 288 288 286 284 282 281 281 280 279 277 277 280 283 285 288 290 291 293 295 298 300 302 302 302 302 304 306 308 310 312 314 315 315 316 316 316 316 316 316 317 317 317 318 318 319 320 320 320
280 280 279 280 281 283 285 287 288 288 288 287 286 286 285 285 284 284 285 285 286 286 287 287 287 286 285 285 285 285 285 285 284 284 284 285 286 286 285 285 284 283 282 280 277 276 278 280 283 285 287 289 291 293 296 299 301 301 301 301 301 303 305 307 309 311 313 313 314 315 316 316 315 316 316 316 317 317 317 318 319 319 320 320 321
279 279 278 279 280 283 285 286 287 288 288 287 287 287 286 285 285 285 285 285 285 285 286 285 285 285 285 286 286 285 285 284 284 283 284 284 284 284 284 284 282 279 277 276 277 279 281 283 285 287 290 292 295 297 299 300 299 299 299 300 302 304 307 308 310 312 313 314 315 315 316 315 315 316 316 316 316 317 317 318 319 319 320 320 321
279 279 280 281 283 285 286 286 287 287 287 287 287 286 286 286 286 286 286 285 285 285 285 285 286 287 287 287 286 285 285 284 284 284 284 285 285 284 282 279 276 275 276 278 281 283 284 286 289 292 294 297 298 299 298 297 296 297 299 301 303 306 308 310 311 312 313 314 315 315 315 315 315 315 315 316 316 316 317 318 319 320 320 321 322
282 283 284 285 285 286 286 286 286 286 286 286 285 285 285 285 285 285 285 284 284 284 285 286 288 289 288 288 287 286 285 284 284 285 286 285 282 278 275 274 275 278 281 283 285 286 289 292 294 296 297 298 297 295 294 294 295 297 299 302 305 307 309 311 312 312 313 313 314 314 314 314 315 315 315 316 316 317 317 319 320 320 321 321 322
284 285 285 285 285 285 285 285 285 284 284 284 283 283 283 283 283 283 282 281 282 284 286 288 290 291 291 290 288 286 285 285 285 285 282 278 274 272 274 278 281 284 285 287 288 291 293 295 296 297 297 295 293 292 293 294 295 297 300 303 305 307 309 311 311 312 312 313 313 313 314 314 314 314 315 316 316 317 318 319 320 321 321 322 322
283 284 284 284 284 284 284 284 283 283 282 282 282 282 282 281 280 279 279 280 283 286 289 292 294 293 291 289 287 285 285 284 282 278 275 272 273 277 282 285 286 287 289 290 292 294 295 296 296 295 294 292 291 291 292 293 294 297 300 303 305 308 309 310 311 312 312 312 313 313 313 314 314 315 316 316 317 318 319 320 321 321 322 322 322
283 283 283 283 283 283 283 282 282 282 282 282 282 281 280 278 277 277 279 282 286 289 292 294 293 291 288 287 286 284 281 277 274 272 272 275 281 285 288 289 290 291 292 293 294 295 295 295 294 292 291 290 290 290 291 292 294 297 300 303 306 308 309 311 311 312 312 312 313 313 313 314 314 315 316 317 317 318 320 321 321 321 322 322 322
283 283 283 282 281 281 281 281 281 281 281 281 280 279 277 276 277 279 282 285 288 291 292 291 290 288 287 285 282 277 273 271 271 275 279 283 287 289 291 291 292 292 293 294 294 294 293 292 291 290 289 289 289 290 291 293 296 299 301 304 306 308 310 311 311 311 312 312 312 312 313 314 315 315 316 317 318 319 320 321 321 322 322 322 321
282 282 281 280 279 279 280 280 280 280 279 279 278 278 277 277 279 281 283 286 290 292 291 288 285 283 281 277 274 272 273 276 280 283 285 287 289 290 291 292 293 293 294 293 292 291 290 289 288 288 288 288 289 291 293 295 298 300 303 305 307 309 310 310 311 311 311 311 312 312 313 314 315 316 316 317 318 319 320 321 322 322 322 322 321
280 279 277 277 277 279 280 280 279 278 277 277 277 277 278 279 281 283 286 288 290 291 289 285 280 277 274 272 274 277 281 283 285 287 288 289 289 290 291 292 293 293 292 290 289 288 287 287 287 287 288 289 290 292 294 296 299 301 304 306 308 309 310 310 310 310 310 311 312 312 313 314 315 316 317 318 319 320 321 322 322 323 323 322 321
278 276 275 275 276 278 278 278 278 277 278 278 279 280 281 283 285 287 288 288 287 286 284 280 275 274 275 276 279 281 283 285 286 287 288 289 289 290 291 291 291 290 288 287 287 286 286 287 287 287 288 290 291 293 295 297 300 303 305 307 308 308 309 309 309 309 310 311 312 313 313 314 315 316 317 318 319 321 322 323 323 323 323 322 321
274 274 274 275 276 277 278 279 280 281 282 283 283 284 286 287 287 287 286 284 281 279 277 275 273 273 275 277 279 282 283 285 286 287 288 289 290 290 290 289 288 287 286 286 286 286 286 287 287 288 289 290 292 294 296 299 302 304 306 307 307 307 308 308 308 308 309 311 312 313 313 314 315 316 318 319 320 321 322 323 324 323 322 322 321
276 276 278 280 281 281 282 283 284 285 286 286 286 286 286 285 284 282 282 281 280 278 277 275 274 275 276 278 280 282 284 285 286 288 289 289 289 289 287 286 285 285 285 285 286 286 286 287 287 288 289 291 293 295 298 300 302 304 305 306 306 306 306 307 307 308 310 311 312 313 313 314 316 317 318 319 320 322 323 323 324 323 322 321 321
280 281 282 283 284 284 284 284 284 285 285 285 285 285 284 282 281 280 280 280 279 278 277 276 277 277 279 280 281 283 284 285 287 288 288 288 287 287 285 285 285 285 285 285 285 286 286 286 287 288 290 292 295 297 299 301 303 304 305 305 305 305 305 306 307 309 310 311 312 312 314 315 316 317 318 319 320 322 323 323 324 323 322 321 321
279 280 281 281 282 282 282 283 283 283 283 283 283 283 281 279 279 280 280 278 277 277 277 278 279 280 281 282 283 284 285 286 287 287 287 286 285 285 284 284 284 285 285 285 285 285 285 286 287 290 292 294 296 298 300 301 302 303 304 304 304 304 305 307 308 309 310 310 311 312 313 315 316 317 318 319 321 322 323 323 323 323 322 321 321
276 277 277 278 279 279 280 281 281 281 281 282 282 281 280 279 279 280 279 277 277 278 279 280 282 282 282 283 284 285 286 286 286 285 285 284 284 284 284 284 285 285 285 285 285 285 286 287 289 291 292 294 297 298 299 300 301 302 303 303 304 305 306 307 308 309 310 310 311 312 313 315 316 317 318 319 321 322 323 324 323 322 321 321 320
274 274 274 275 276 277 278 279 279 279 279 279 279 279 279 279 278 278 277 278 279 281 281 282 282 283 284 285 285 286 286 286 285 285 284 284 285 285 285 285 285 285 285 285 285 286 287 288 290 291 293 295 297 298 299 300 301 301 302 303 304 306 307 307 308 309 309 310 311 312 314 315 316 317 318 319 321 322 323 324 323 322 321 320 320
273 273 273 273 274 275 276 277 277 277 278 278 278 278 278 277 277 276 278 279 280 281 281 282 283 284 285 285 286 286 286 285 285 285 285 285 285 285 285 285 285 285 285 285 286 287 288 289 290 292 294 296 297 298 298 299 300 301 302 303 304 305 306 307 308 309 309 310 311 312 314 315 316 317 318 320 321 323 323 323 322 321 320 319 319
272 272 272 272 272 273 274 276 277 277 278 278 278 278 278 277 277 277 278 280 280 281 283 283 284 284 285 285 285 286 285 285 285 285 285 285 285 285 285 285 285 285 285 285 286 287 288 289 290 292 295 296 296 297 297 298 299 300 301 302 303 304 305 306 307 308 309 310 311 312 314 315 315 317 318 320 321 322 323 323 322 320 319 318 318
271 271 272 272 273 274 275 276 276 276 276 276 276 277 278 279 279 280 281 282 283 284 284 284 284 284 284 285 285 285 285 285 285 285 285 285 284 284 284 284 284 284 285 285 286 287 288 289 291 293 294 295 295 296 296 298 299 299 300 301 302 303 305 306 307 307 308 309 311 312 313 314 315 317 318 320 321 322 323 322 321 319 318 317 317
272 272 272 272 272 271 271 271 271 271 273 275 276 278 279 280 281 282 283 283 283 284 284 284 284 285 285 285 285 285 285 285 285 285 284 283 283 283 283 283 283 284 284 285 286 288 289 290 292 293 294 294 294 295 296 297 299 299 300 300 301 303 304 305 306 307 308 309 310 312 313 314 315 317 318 320 321 322 322 321 319 318 317 316 316
268 267 265 265 265 266 267 268 270 273 275 277 278 279 280 280 281 282 282 283 284 284 285 285 285 286 286 286 285 285 285 284 283 283 282 282 282 282 282 282 283 284 285 287 288 289 289 291 292 293 293 293 294 294 295 297 298 299 300 300 301 302 304 304 305 306 307 308 310 311 313 314 315 317 318 320 321 321 321 320 318 316 315 315 315
266 266 266 266 268 270 271 273 275 276 277 277 278 278 279 280 281 282 283 284 285 286 286 287 287 287 286 286 285 284 283 282 281 281 281 280 280 280 281 282 284 285 287 288 288 289 290 291 292 293 292 292 293 294 295 296 298 299 300 300 301 302 303 304 304 305 306 307 309 311 312 313 315 316 318 319 320 321 320 318 316 314 314 314 313
272 273 273 273 273 274 274 275 276 277 277 278 279 279 280 281 283 284 285 285 286 287 287 287 287 287 286 285 284 283 282 281 281 280 280 279 280 281 282 284 286 287 287 288 289 290 291 292 292 292 292 292 293 294 295 296 297 298 299 300 300 302 302 303 303 304 305 307 308 310 311 312 314 315 316 318 319 319 318 316 314 313 312 312 312
270 271 271 271 272 273 275 276 278 279 280 281 282 283 283 284 284 285 285 286 286 286 286 286 286 286 285 284 283 282 281 281 280 280 280 280 281 283 284 285 286 287 288 289 290 291 291 291 291 291 292 292 293 294 295 296 297 298 298 299 300 301 301 301 302 303 304 306 308 309 310 311 312 314 315 316 317 317 316 314 312 311 310 310 311
269 270 271 273 274 276 278 279 281 282 282 283 284 285 285 286 286 286 286 286 286 286 286 286 285 285 284 283 282 281 281 280 280 280 280 282 283 284 285 286 287 288 289 290 291 291 291 291 291 292 292 293 294 294 295 296 296 297 298 299 300 300 300 300 301 302 304 305 306 307 309 310 311 312 313 314 315 315 314 312 310 308 308 309 309
272 273 274 276 277 279 281 282 283 284 285 285 286 287 287 287 287 287 286 286 286 285 285 284 284 283 282 282 281 280 279 279 280 281 282 283 284 285 286 287 288 289 289 290 290 290 290 291 291 292 293 294 294 295 295 296 296 297 298 299 299 299 299 300 301 302 303 304 305 306 307 308 309 311 311 312 313 312 311 309 307 306 306 306 307
275 277 278 279 280 281 282 283 284 284 285 286 286 287 287 286 286 285 285 285 284 284 283 283 282 282 281 280 280 279 279 280 281 282 284 285 285 286 287 287 287 288 288 289 289 290 290 291 292 293 294 294 295 295 295 296 296 297 298 298 298 298 299 299 300 301 302 303 304 305 306 307 308 309 309 310 310 309 308 306 304 303 303 304 305
Height
5762 5761 5760 5759 5757 5756 5754 5753 5751 5750 5749 5748 5747 5746 5745 5744 5744 5743 5742 5741 5741 5740 5739 5738 5738 5737 5737 5736 5735 5734 5733 5732 5731 5729 5727 5726 5724 5722 5720 5718 5716 5715 5713 5710 5708 5706 5704 5701 5699 5696 5693 5690 5687 5684 5681 5677 5673 5670 5667 5664 5661 5659 5656 5653 5649 5646 5643 5642 5639 5636 5632 5628 5624 5621 5618 5613 5608 5604 5598 5594 5590 5584 5579 5573 5565
5756 5755 5754 5753 5752 5750 5749 5748 5746 5745 5744 5743 5742 5741 5741 5740 5739 5739 5738 5737 5736 5735 5735 5734 5734 5733 5732 5731 5730 5729 5728 5726 5725 5724 5722 5720 5718 5716 5715 5712 5710 5709 5706 5704 5702 5700 5697 5695 5692 5689 5686 5683 5680 5678 5675 5671 5666 5663 5660 5657 5654 5651 5648 5645 5642 5639 5635 5633 5631 5628 5624 5620 5616 5613 5610 5606 5601 5596 5591 5586 5581 5576 5570 5564 5557
5751 5750 5749 5748 5746 5745 5744 5743 5742 5741 5740 5739 5738 5737 5736 5735 5735 5734 5733 5733 5732 5731 5730 5730 5729 5728 5727 5726 5725 5724 5722 5721 5719 5718 5716 5714 5712 5711 5709 5707 5705 5702 5700 5698 5696 5693 5690 5688 5685 5683 5680 5677 5674 5671 5668 5665 5660 5656 5653 5650 5647 5643 5640 5638 5635 5632 5629 5625 5623 5620 5616 5613 5609 5605 5601 5598 5594 5589 5584 5579 5574 5568 5562 5555 5549
5747 5746 5744 5743 5741 5740 5739 5738 5737 5736 5735 5734 5733 5732 5731 5731 5730 5730 5729 5728 5727 5727 5726 5725 5724 5723 5722 5721 5719 5718 5716 5715 5714 5712 5710 5708 5706 5705 5703 5701 5698 5696 5694 5691 5689 5686 5683 5681 5679 5676 5673 5670 5667 5664 5661 5658 5654 5650 5646 5643 5640 5636 5632 5629 5627 5624 5622 5618 5615 5612 5609 5605 5601 5597 5594 5591 5586 5580 5576 5571 5566 5560 5553 5547 5541
5742 5741 5739 5738 5737 5735 5734 5733 5732 5731 5730 5730 5729 5728 5727 5727 5726 5725 5724 5724 5723 5722 5721 5720 5719 5718 5717 5715 5714 5712 5711 5709 5708 5706 5704 5703 5701 5699 5697 5694 5692 5689 5687 5685 5682 5679 5677 5674 5672 5670 5666 5663 5660 5657 5655 5651 5647 5643 5639 5636 5633 5629 5625 5622 5620 5617 5615 5611 5607 5604 5601 5598 5593 5589 5586 5583 5578 5572 5568 5564 5558 5551 5546 5540 5533
5738 5736 5735 5733 5732 5731 5730 5729 5728 5727 5726 5725 5724 5724 5723 5722 5721 5720 5720 5719 5718 5717 5716 5715 5714 5713 5711 5710 5708 5706 5705 5703 5702 5700 5699 5697 5695 5693 5690 5688 5685 5682 5680 5678 5675 5673 5670 5667 5665 5662 5660 5657 5654 5651 5648 5644 5640 5636 5632 5629 5626 5623 5619 5616 5613 5610 5607 5604 5601 5597 5593 5589 5585 5581 5577 5573 5569 5565 5561 5556 5549 5542 5537 5532 5525
5733 5731 5730 5729 5727 5726 5725 5724 5724 5723 5722 5721 5720 5719 5719 5718 5717 5716 5714 5714 5713 5712 5711 5710 5709 5707 5706 5704 5702 5700 5699 5697 5696 5694 5693 5691 5688 5686 5684 5681 5679 5676 5673 5671 5668 5666 5663 5660 5657 5655 5653 5650 5647 5644 5641 5637 5633 5629 5625 5623 5619 5615 5612 5609 5605 5602 5600 5596 5593 5590 5586 5581 5576 5572 5568 5564 5560 5556 5552 5548 5543 5535 5529 5523 5516
5728 5726 5725 5724 5722 5722 5721 5720 5720 5719 5718 5717 5716 5715 5714 5713 5712 5711 5710 5709 5708 5706 5705 5704 5703 5701 5700 5698 5696 5694 5693 5691 5690 5688 5687 5684 5682 5680 5677 5675 5672 5669 5666 5664 5661 5659 5656 5652 5649 5647 5646 5644 5640 5637 5633 5629 5625 5621 5618 5615 5612 5608 5605 5601 5598 5595 5592 5588 5585 5582 5579 5574 5568 5564 5559 5555 5551 5547 5541 5537 5534 5528 5522 5515 5507
5722 5721 5720 5719 5718 5717 5716 5716 5715 5714 5713 5712 5712 5711 5710 5708 5707 5706 5705 5704 5702 5701 5700 5698 5697 5695 5694 5692 5690 5688 5686 5685 5684 5682 5680 5677 5675 5673 5670 5668 5665 5662 5659 5656 5653 5651 5648 5646 5642 5640 5638 5636 5633 5629 5625 5621 5616 5613 5610 5608 5604 5601 5598 5594 5591 5587 5584 5581 5577 5574 5571 5566 5560 5555 5551 5546 5542 5538 5532 5527 5523 5519 5513 5508 5500
5717 5716 5714 5714 5713 5712 5712 5711 5710 5709 5708 5707 5706 5705 5705 5703 5702 5701 5699 5698 5697 5695 5694 5692 5691 5689 5687 5685 5683 5682 5680 5679 5677 5675 5672 5670 5668 5666 5663 5660 5657 5655 5652 5648 5646 5644 5641 5638 5636 5633 5630 5628 5625 5621 5617 5612 5608 5605 5603 5600 5597 5594 5590 5586 5583 5579 5576 5573 5569 5566 5563 5558 5552 5547 5543 5538 5533 5528 5523 5518 5514 5509 5504 5500 5494
5711 5710 5709 5708 5708 5707 5706 5705 5705 5704 5703 5702 5701 5700 5699 5697 5696 5695 5694 5692 5691 5689 5687 5686 5684 5682 5680 5679 5677 5676 5674 5672 5670 5668 5665 5663 5661 5659 5656 5653 5650 5647 5644 5641 5638 5636 5633 5631 5628 5626 5622 5619 5616 5613 5608 5603 5600 5598 5596 5593 5590 5586 5583 5579 5575 5571 5568 5564 5561 5557 5554 5550 5545 5539 5534 5529 5524 5518 5514 5509 5504 5499 5494 5490 5486
5705 5705 5703 5703 5702 5702 5701 5700 5699 5698 5697 5696 5695 5694 5693 5692 5691 5689 5688 5686 5684 5683 5681 5679 5678 5675 5674 5672 5671 5669 5667 5665 5663 5661 5658 5656 5654 5651 5648 5645 5642 5639 5636 5634 5631 5628 5625 5623 5621 5618 5614 5610 5607 5603 5600 5596 5593 5591 5588 5586 5583 5579 5575 5572 5567 5563 5559 5556 5553 5549 5545 5541 5537 5531 5525 5520 5516 5510 5505 5500 5495 5490 5486 5480 5476
5700 5699 5698 5697 5696 5696 5695 5694 5693 5692 5691 5690 5689 5688 5687 5686 5685 5683 5682 5680 5678 5676 5674 5672 5671 5669 5667 5665 5664 5662 5660 5658 5656 5654 5651 5649 5646 5643 5640 5637 5634 5631 5629 5626 5623 5620 5618 5616 5613 5609 5606 5602 5598 5594 5591 5588 5586 5583 5581 5578 5576 5572 5569 5565 5559 5555 5551 5547 5544 5541 5536 5531 5527 5521 5516 5511 5507 5501 5496 5492 5486 5481 5477 5472 5467
5694 5693 5692 5692 5690 5689 5688 5688 5687 5685 5684 5683 5682 5682 5681 5680 5679 5677 5675 5673 5672 5670 5668 5666 5664 5662 5660 5659 5657 5655 5653 5651 5649 5646 5644 5641 5638 5636 5633 5630 5627 5624 5621 5618 5616 5613 5611 5607 5605 5601 5598 5595 5590 5585 5583 5581 5578 5576 5573 5571 5568 5565 5562 5557 5551 5548 5543 5539 5536 5533 5527 5521 5517 5512 5508 5502 5498 5493 5488 5484 5478 5473 5469 5464 5459
5688 5687 5686 5686 5684 5683 5682 5681 5680 5679 5678 5677 5676 5675 5674 5673 5672 5670 5668 5666 5665 5663 5661 5659 5658 5656 5654 5652 5650 5648 5647 5644 5641 5639 5636 5633 5630 5628 5625 5622 5619 5616 5613 5611 5609 5607 5603 5600 5597 5594 5591 5587 5581 5576 5575 5573 5571 5569 5566 5564 5561 5557 5553 5548 5543 5540 5537 5532 5529 5524 5518 5513 5508 5504 5499 5493 5488 5484 5480 5475 5470 5464 5460 5456 5451
5682 5680 5680 5679 5678 5676 5675 5674 5673 5672 5671 5670 5669 5668 5667 5666 5665 5663 5661 5659 5657 5656 5654 5653 5651 5649 5646 5645 5643 5641 5640 5637 5634 5631 5628 5625 5622 5620 5617 5614 5611 5609 5607 5605 5602 5599 5595 5592 5589 5586 5583 5578 5572 5568 5567 5565 5564 5562 5560 5557 5554 5549 5544 5539 5535 5532 5529 5524 5520 5515 5510 5505 5500 5496 5491 5486 5481 5476 5471 5466 5461 5455 5451 5447 5443
5676 5674 5673 5672 5671 5670 5668 5667 5667 5665 5664 5663 5662 5661 5660 5658 5657 5655 5653 5652 5650 5649 5647 5646 5644 5642 5640 5638 5636 5634 5632 5630 5626 5623 5619 5616 5614 5612 5610 5607 5604 5602 5600 5597 5595 5591 5587 5584 5581 5578 5575 5569 5565 5561 5559 5558 5557 5556 5554 5550 5546 5541 5536 5531 5527 5525 5520 5516 5512 5508 5503 5498 5493 5488 5483 5477 5472 5468 5463 5457 5451 5446 5441 5436 5432
5669 5668 5667 5666 5665 5664 5662 5661 5660 5659 5657 5657 5655 5654 5652 5650 5649 5648 5646 5645 5643 5641 5640 5638 5636 5634 5632 5630 5628 5626 5624 5621 5618 5614 5611 5608 5607 5605 5603 5600 5597 5595 5592 5589 5587 5584 5579 5575 5572 5570 5566 5560 5557 5555 5553 5552 5551 5548 5545 5542 5538 5534 5528 5523 5520 5517 5512 5508 5505 5501 5496 5491 5485 5480 5474 5468 5462 5458 5453 5448 5442 5437 5432 5426 5420
5663 5662 5661 5660 5658 5657 5655 5654 5653 5651 5650 5649 5648 5646 5644 5643 5641 5640 5639 5637 5635 5634 5632 5630 5628 5626 5624 5622 5620 5618 5616 5613 5611 5608 5604 5601 5600 5598 5596 5593 5590 5587 5584 5581 5579 5576 5571 5567 5564 5561 5556 5552 5550 5549 5547 5546 5543 5540 5536 5533 5530 5526 5521 5516 5512 5509 5505 5502 5498 5493 5488 5483 5478 5472 5467 5460 5454 5449 5444 5439 5433 5428 5423 5417 5410
5656 5655 5654 5653 5651 5650 5648 5647 5645 5644 5643 5642 5640 5638 5637 5635 5633 5632 5631 5629 5628 5626 5624 5622 5620 5619 5617 5615 5613 5611 5609 5606 5605 5603 5598 5594 5592 5590 5588 5585 5583 5580 5577 5575 5571 5567 5563 5560 5557 5552 5548 5546 5544 5543 5541 5538 5535 5532 5528 5525 5521 5517 5512 5508 5505 5502 5499 5495 5491 5486 5482 5476 5471 5465 5459 5454 5448 5442 5437 5431 5426 5420 5414 5409 5402
5649 5648 5647 5646 5644 5643 5641 5640 5638 5637 5635 5634 5633 5631 5630 5628 5626 5625 5623 5622 5620 5618 5616 5614 5612 5611 5610 5607 5605 5603 5601 5599 5597 5594 5590 5587 5584 5582 5580 5578 5575 5573 5570 5566 5562 5559 5556 5553 5549 5545 5542 5540 5538 5535 5533 5530 5527 5524 5520 5515 5511 5508 5504 5502 5498 5495 5492 5488 5484 5480 5475 5469 5464 5458 5453 5447 5441 5435 5430 5424 5419 5413 5407 5401 5395
5641 5640 5639 5637 5636 5635 5634 5632 5631 5629 5628 5627 5625 5624 5622 5621 5619 5617 5615 5614 5612 5610 5608 5606 5604 5603 5601 5598 5596 5594 5593 5591 5588 5584 5581 5578 5576 5574 5572 5570 5567 5564 5560 5557 5554 5551 5548 5545 5542 5539 5536 5533 5530 5528 5525 5521 5519 5516 5511 5507 5502 5499 5497 5495 5491 5488 5485 5481 5477 5473 5468 5463 5459 5453 5448 5442 5436 5430 5425 5419 5412 5407 5401 5394 5387
5632 5631 5630 5629 5628 5627 5626 5625 5623 5622 5620 5618 5617 5616 5614 5613 5611 5609 5607 5605 5603 5601 5599 5597 5595 5593 5591 5589 5587 5585 5584 5582 5579 5576 5573 5569 5567 5565 5563 5561 5558 5555 5552 5550 5547 5543 5540 5538 5536 5534 5530 5526 5522 5519 5516 5512 5508 5505 5502 5498 5495 5492 5489 5487 5484 5481 5478 5474 5470 5466 5462 5458 5453 5448 5443 5437 5431 5425 5419 5412 5406 5399 5393 5387 5379
5623 5622 5621 5620 5620 5619 5618 5616 5615 5613 5611 5609 5607 5606 5605 5603 5601 5599 5597 5595 5593 5591 5589 5587 5586 5585 5582 5579 5577 5576 5575 5573 5570 5567 5564 5561 5559 5556 5554 5551 5549 5547 5544 5542 5538 5535 5533 5532 5530 5527 5523 5519 5514 5510 5505 5501 5498 5495 5493 5491 5488 5485 5481 5478 5476 5473 5470 5467 5463 5460 5455 5451 5446 5441 5436 5430 5425 5419 5413 5406 5399 5393 5386 5379 5372
5615 5614 5613 5612 5611 5610 5609 5607 5605 5603 5601 5599 5597 5596 5594 5592 5590 5589 5587 5585 5583 5582 5580 5578 5576 5575 5573 5570 5568 5566 5565 5562 5560 5558 5556 5553 5550 5548 5545 5542 5540 5537 5535 5533 5531 5529 5527 5525 5523 5519 5515 5510 5505 5500 5496 5492 5489 5487 5485 5483 5480 5477 5474 5470 5467 5465 5462 5458 5455 5451 5447 5442 5438 5433 5428 5423 5417 5412 5405 5399 5393 5386 5378 5372 5365
5606 5605 5604 5603 5602 5600 5599 5597 5595 5593 5591 5589 5587 5585 5584 5582 5580 5579 5577 5575 5574 5572 5570 5568 5567 5566 5564 5561 5559 5556 5553 5551 5549 5547 5545 5543 5540 5537 5535 5532 5530 5529 5528 5527 5525 5523 5520 5517 5514 5510 5505 5501 5497 5493 5489 5486 5483 5480 5478 5475 5472 5469 5466 5462 5459 5456 5453 5449 5446 5443 5439 5434 5430 5425 5420 5415 5410 5403 5397 5391 5385 5378 5370 5363 5357
5597 5595 5594 5593 5591 5589 5588 5586 5585 5583 5581 5579 5578 5576 5574 5573 5571 5569 5567 5566 5564 5563 5561 5559 5558 5557 5555 5552 5549 5546 5543 5540 5538 5536 5534 5532 5529 5526 5525 5523 5523 5522 5522 5520 5518 5515 5511 5508 5504 5500 5496 5493 5490 5486 5483 5480 5476 5473 5471 5468 5465 5462 5458 5455 5451 5447 5444 5441 5438 5435 5431 5427 5422 5418 5413 5408 5402 5395 5389 5383 5376 5369 5361 5354 5348
5586 5585 5583 5582 5580 5579 5577 5576 5574 5573 5571 5570 5568 5566 5565 5563 5561 5560 5558 5556 5555 5553 5551 5550 5548 5546 5544 5542 5539 5536 5533 5530 5528 5526 5523 5521 5519 5518 5518 5518 5517 5515 5513 5511 5509 5505 5501 5497 5494 5491 5489 5486 5483 5480 5476 5473 5470 5467 5464 5461 5458 5455 5452 5449 5445 5441 5437 5434 5430 5426 5423 5419 5415 5410 5405 5400 5394 5387 5380 5374 5367 5360 5352 5345 5339
5575 5574 5572 5571 5569 5568 5567 5566 5564 5563 5562 5560 5559 5557 5555 5554 5552 5550 5548 5547 5545 5544 5542 5540 5537 5535 5533 5531 5529 5527 5524 5521 5518 5517 5515 5514 5514 5513 5513 5511 5509 5506 5503 5501 5498 5495 5492 5488 5485 5483 5481 5478 5476 5473 5470 5467 5464 5461 5459 5455 5452 5449 5446 5442 5439 5435 5431 5427 5423 5419 5415 5411 5407 5402 5396 5391 5385 5378 5372 5365 5359 5352 5344 5337 5330
5564 5563 5561 5560 5559 5558 5557 5555 5554 5553 5552 5550 5549 5547 5546 5544 5542 5540 5539 5538 5536 5534 5532 5530 5527 5525 5523 5521 5519 5517 5514 5511 5510 5510 5510 5509 5508 5506 5503 5501 5499 5496 5493 5490 5488 5485 5483 5480 5478 5476 5473 5471 5468 5466 5463 5461 5458 5455 5452 5449 5445 5442 5439 5435 5432 5428 5424 5420 5416 5412 5408 5403 5399 5394 5388 5383 5377 5371 5364 5358 5351 5344 5336 5329 5322
5553 5551 5550 5549 5548 5547 5546 5546 5545 5544 5542 5541 5539 5537 5536 5535 5533 5532 5530 5528 5527 5525 5523 5520 5517 5515 5513 5511 5510 5508 5506 5505 5505 5505 5504 5501 5498 5495 5493 5490 5488 5486 5483 5482 5479 5476 5474 5472 5470 5468 5466 5463 5460 5457 5455 5453 5450 5448 5445 5442 5438 5435 5431 5428 5424 5420 5417 5413 5410 5405 5400 5395 5391 5386 5380 5375 5370 5364 5357 5350 5343 5336 5329 5321 5315
5542 5541 5540 5539 5538 5538 5537 5536 5535 5534 5533 5531 5530 5529 5527 5526 5524 5522 5520 5519 5518 5516 5514 5511 5509 5507 5505 5504 5503 5501 5500 5498 5497 5496 5493 5491 5488 5486 5483 5481 5479 5477 5475 5473 5470 5467 5465 5463 5462 5460 5458 5455 5452 5450 5447 5445 5442 5440 5438 5434 5431 5427 5424 5420 5417 5413 5409 5406 5402 5398 5393 5388 5383 5378 5372 5367 5361 5356 5349 5342 5335 5328 5321 5314 5307
5532 5531 5530 5529 5529 5528 5527 5526 5525 5524 5523 5522 5521 5520 5518 5516 5515 5513 5511 5510 5509 5507 5505 5503 5501 5500 5499 5497 5496 5494 5491 5488 5487 5485 5483 5481 5478 5476 5474 5472 5470 5468 5466 5464 5461 5459 5457 5455 5453 5451 5449 5447 5445 5443 5440 5437 5435 5432 5430 5427 5423 5420 5416 5413 5409 5405 5402 5398 5394 5390 5385 5380 5375 5370 5365 5359 5353 5347 5340 5334 5327 5320 5313 5306 5300
5523 5522 5521 5520 5519 5518 5517 5516 5515 5514 5513 5512 5511 5509 5508 5506 5505 5503 5501 5501 5500 5498 5497 5496 5494 5492 5490 5488 5486 5483 5481 5478 5477 5475 5473 5471 5469 5467 5465 5463 5461 5459 5457 5455 5453 5451 5449 5447 5445 5443 5441 5439 5437 5435 5433 5430 5427 5424 5422 5419 5415 5412 5409 5406 5402 5398 5394 5390 5386 5381 5377 5372 5367 5362 5357 5351 5345 5338 5332 5325 5318 5311 5304 5298 5292
5513 5512 5511 5510 5509 5508 5506 5505 5504 5503 5502 5501 5500 5499 5497 5496 5495 5493 5492 5491 5490 5489 5488 5486 5485 5483 5481 5478 5476 5473 5471 5469 5467 5465 5464 5462 5460 5458 5456 5454 5452 5451 5449 5447 5444 5442 5441 5438 5436 5435 5433 5431 5429 5427 5425 5422 5420 5417 5414 5411 5407 5404 5402 5398 5395 5391 5387 5383 5378 5374 5369 5364 5359 5354 5349 5343 5337 5330 5324 5317 5310 5303 5297 5290 5285
5503 5502 5500 5499 5498 5497 5496 5494 5493 5492 5491 5490 5489 5487 5486 5486 5485 5484 5483 5482 5480 5478 5477 5475 5473 5472 5470 5468 5465 5463 5462 5459 5457 5456 5454 5452 5451 5450 5448 5445 5444 5442 5440 5438 5436 5434 5432 5431 5429 5427 5425 5423 5421 5419 5417 5415 5412 5409 5406 5403 5400 5397 5394 5391 5388 5384 5380 5375 5371 5366 5361 5356 5351 5346 5341 5336 5329 5323 5317 5310 5304 5297 5290 5284 5279
5492 5491 5490 5488 5487 5486 5485 5483 5482 5481 5480 5480 5479 5477 5476 5475 5474 5473 5473 5471 5469 5468 5465 5464 5462 5461 5459 5457 5455 5454 5452 5450 5448 5446 5445 5443 5442 5441 5439 5437 5435 5433 5432 5430 5428 5426 5424 5423 5421 5419 5417 5415 5413 5411 5409 5407 5404 5401 5399 5396 5393 5390 5387 5384 5380 5376 5372 5368 5363 5359 5354 5348 5343 5338 5333 5328 5323 5316 5310 5303 5297 5290 5284 5278 5272
5482 5480 5479 5478 5477 5475 5474 5473 5472 5471 5470 5469 5468 5467 5466 5465 5464 5463 5462 5460 5459 5457 5455 5453 5452 5450 5448 5446 5445 5444 5443 5441 5440 5438 5436 5434 5433 5432 5430 5428 5426 5425 5423 5422 5420 5419 5417 5415 5414 5412 5410 5408 5406 5404 5401 5399 5396 5394 5391 5388 5385 5382 5379 5376 5372 5368 5365 5361 5356 5352 5347 5342 5336 5331 5326 5321 5315 5310 5303 5296 5290 5284 5278 5272 5267
5471 5469 5468 5467 5466 5464 5463 5462 5461 5460 5459 5459 5458 5457 5456 5455 5453 5452 5451 5450 5448 5447 5445 5444 5442 5440 5438 5437 5436 5435 5434 5433 5431 5429 5427 5426 5425 5423 5421 5420 5418 5416 5415 5414 5413 5412 5410 5408 5407 5405 5403 5401 5399 5397 5394 5392 5389 5386 5383 5380 5377 5373 5370 5367 5363 5360 5356 5353 5349 5344 5340 5335 5329 5324 5318 5313 5308 5303 5296 5290 5283 5277 5272 5267 5262
5459 5458 5457 5456 5455 5454 5453 5452 5451 5450 5449 5448 5448 5447 5446 5445 5443 5442 5441 5440 5439 5437 5436 5435 5433 5431 5430 5428 5427 5427 5426 5424 5423 5421 5419 5417 5416 5415 5413 5412 5411 5409 5408 5406 5405 5404 5402 5401 5399 5397 5395 5393 5391 5389 5387 5384 5381 5378 5375 5372 5368 5364 5361 5358 5355 5351 5348 5344 5340 5336 5331 5327 5322 5317 5311 5306 5301 5295 5289 5283 5277 5271 5266 5261 5257
5447 5447 5446 5446 5445 5445 5444 5442 5441 5441 5440 5439 5438 5437 5436 5435 5434 5432 5431 5431 5430 5429 5428 5426 5425 5423 5422 5421 5420 5419 5417 5416 5414 5413 5411 5410 5408 5406 5405 5404 5403 5402 5400 5399 5397 5396 5394 5393 5391 5389 5387 5385 5383 5380 5378 5375 5372 5370 5367 5363 5360 5356 5353 5350 5347 5343 5339 5335 5331 5327 5323 5319 5315 5310 5304 5299 5294 5288 5283 5277 5271 5265 5260 5255 5251
5437 5436 5436 5436 5435 5435 5434 5433 5432 5431 5430 5430 5429 5427 5426 5425 5424 5423 5423 5422 5421 5420 5420 5418 5417 5415 5414 5413 5412 5411 5409 5408 5406 5405 5403 5402 5401 5399 5398 5396 5395 5394 5392 5391 5389 5388 5386 5385 5383 5381 5379 5377 5375 5372 5370 5367 5364 5361 5358 5355 5352 5348 5345 5341 5338 5334 5331 5327 5323 5319 5315 5311 5307 5303 5298 5292 5287 5281 5276 5270 5265 5259 5255 5250 5246
5427 5426 5426 5426 5426 5425 5425 5424 5423 5422 5421 5421 5420 5419 5418 5417 5416 5415 5415 5414 5413 5413 5412 5410 5409 5408 5406 5405 5404 5403 5401 5400 5398 5397 5395 5394 5393 5391 5390 5389 5387 5386 5385 5383 5381 5380 5379 5377 5375 5373 5371 5369 5366 5364 5361 5358 5355 5352 5349 5346 5343 5340 5336 5333 5329 5326 5322 5318 5315 5311 5307 5303 5299 5295 5290 5285 5280 5274 5269 5264 5259 5254 5249 5245 5241
5417 5417 5417 5417 5417 5417 5416 5416 5415 5414 5413 5413 5412 5411 5410 5410 5409 5408 5407 5406 5405 5405 5403 5402 5401 5399 5398 5397 5396 5394 5393 5392 5390 5389 5388 5386 5385 5383 5382 5381 5379 5378 5377 5375 5374 5372 5371 5369 5367 5365 5363 5360 5358 5355 5353 5350 5347 5344 5340 5337 5334 5331 5328 5324 5321 5317 5314 5310 5306 5303 5299 5295 5291 5287 5282 5278 5273 5268 5262 5257 5252 5248 5244 5240 5236
5409 5409 5409 5409 5409 5408 5408 5407 5407 5406 5405 5405 5404 5403 5403 5402 5401 5400 5399 5398 5397 5396 5395 5394 5392 5391 5390 5389 5387 5386 5385 5383 5382 5381 5380 5378 5377 5376 5374 5373 5372 5370 5369 5367 5366 5364 5363 5361 5359 5357 5354 5352 5349 5347 5344 5341 5338 5335 5332 5328 5325 5322 5319 5316 5312 5309 5306 5302 5298 5295 5291 5287 5283 5278 5274 5270 5266 5261 5256 5251 5246 5242 5238 5234 5231
5401 5401 5401 5401 5401 5400 5400 5399 5399 5398 5398 5397 5397 5396 5395 5394 5394 5393 5391 5390 5389 5388 5387 5385 5384 5383 5382 5380 5379 5378 5377 5375 5374 5373 5372 5370 5369 5368 5366 5365 5364 5362 5361 5359 5358 5356 5354 5352 5350 5348 5345 5343 5340 5337 5335 5332 5329 5325 5322 5320 5316 5313 5310 5307 5303 5300 5297 5294 5291 5287 5283 5279 5275 5270 5266 5263 5258 5254 5249 5244 5240 5236 5233 5229 5226
5394 5394 5393 5393 5393 5393 5392 5392 5391 5391 5390 5389 5389 5388 5387 5387 5386 5385 5383 5382 5381 5380 5378 5377 5376 5375 5373 5372 5371 5370 5368 5367 5366 5365 5363 5362 5361 5359 5358 5357 5356 5354 5353 5351 5349 5348 5346 5343 5341 5338 5336 5333 5331 5328 5325 5322 5319 5316 5313 5310 5307 5304 5301 5298 5295 5292 5289 5286 5282 5279 5275 5271 5267 5263 5259 5255 5251 5247 5243 5238 5234 5230 5227 5223 5220
5387 5387 5387 5386 5386 5386 5385 5384 5384 5383 5383 5382 5381 5381 5380 5379 5378 5377 5376 5374 5373 5372 5370 5368 5367 5366 5365 5363 5362 5361 5359 5358 5357 5356 5355 5354 5353 5351 5350 5349 5347 5346 5344 5342 5340 5338 5336 5333 5331 5329 5326 5324 5321 5318 5315 5313 5310 5307 5304 5301 5298 5295 5292 5289 5286 5283 5280 5277 5274 5270 5267 5263 5259 5255 5252 5248 5244 5240 5236 5232 5228 5225 5221 5218 5215
5380 5380 5380 5379 5379 5379 5378 5377 5377 5376 5375 5374 5374 5373 5372 5371 5370 5368 5367 5366 5364 5363 5361 5360 5358 5357 5356 5354 5353 5352 5351 5349 5348 5347 5346 5345 5344 5343 5341 5340 5339 5337 5335 5333 5331 5329 5326 5324 5322 5319 5316 5314 5311 5308 5305 5303 5300 5297 5294 5291 5289 5286 5283 5280 5277 5274 5271 5268 5265 5262 5258 5254 5251 5247 5244 5241 5237 5233 5229 5225 5222 5219 5216 5213 5210
5373 5373 5373 5372 5372 5371 5370 5370 5369 5368 5367 5366 5366 5364 5363 5362 5361 5359 5358 5357 5355 5354 5352 5351 5350 5348 5347 5345 5344 5343 5342 5341 5339 5338 5337 5336 5335 5334 5333 5331 5330 5328 5326 5324 5321 5319 5317 5314 5312 5309 5306 5304 5301 5298 5295 5292 5290 5287 5284 5281 5279 5276 5273 5270 5268 5265 5262 5259 5256 5252 5249 5246 5242 5239 5236 5233 5230 5226 5223 5219 5215 5212 5210 5207 5204
5366 5366 5365 5364 5364 5363 5362 5361 5361 5360 5359 5358 5357 5355 5354 5353 5352 5350 5349 5348 5346 5345 5344 5342 5341 5339 5338 5337 5335 5334 5333 5332 5331 5330 5329 5327 5326 5325 5323 5322 5320 5318 5316 5314 5312 5309 5307 5304 5302 5299 5296 5293 5290 5288 5285 5282 5279 5277 5274 5271 5268 5266 5263 5260 5258 5255 5252 5249 5246 5243 5240 5237 5233 5230 5227 5224 5222 5219 5215 5212 5209 5206 5203 5201 5198